Date,TemperatureHighF,TemperatureAvgF,TemperatureLowF,DewpointHighF,DewpointAvgF,DewpointLowF,HumidityHigh,HumidityAvg,HumidityLow,PressureMaxIn,PressureMinIn,WindSpeedMaxMPH,WindSpeedAvgMPH,GustSpeedMaxMPH,PrecipitationSumIn
2013-1-1,75.4,58.2,43.5,61.0,52.5,43.0,99,83,56,29.99,29.74,7,2,0,0.00
2013-1-2,66.9,59.3,51.3,62.8,52.8,44.3,99,81,46,29.93,29.72,5,1,0,0.10
2013-1-3,51.1,44.3,32.0,45.3,41.7,31.8,99,91,75,30.11,29.92,3,0,0,0.11
2013-1-4,55.0,39.9,27.3,43.8,35.5,27.1,99,86,58,30.21,30.10,4,1,0,0.00
2013-1-5,57.6,43.6,27.3,42.4,30.8,23.8,92,64,35,30.25,30.09,4,1,0,0.00
2013-1-6,59.5,49.2,40.5,44.9,41.2,37.7,96,75,51,30.11,29.96,3,0,0,0.00
2013-1-7,59.7,44.0,29.3,38.4,34.0,29.1,99,72,39,30.21,30.07,7,2,0,0.00
2013-1-8,64.9,52.9,43.7,50.2,42.6,35.3,75,68,55,30.20,30.08,6,2,0,0.00
2013-1-9,70.0,59.1,50.2,59.9,53.5,46.4,91,82,69,30.23,30.10,4,1,0,0.00
2013-1-10,68.2,62.7,58.8,65.9,61.7,58.5,99,97,89,30.21,30.06,7,2,0,0.11
2013-1-11,75.7,66.7,60.1,66.7,63.2,59.8,99,89,68,30.07,29.95,7,2,0,0.01
2013-1-12,81.0,65.4,55.8,63.1,59.1,55.5,99,83,51,30.00,29.88,6,1,0,0.00
2013-1-13,79.5,65.1,54.7,66.1,60.5,54.4,99,86,62,29.95,29.86,6,1,0,0.00
2013-1-14,78.1,67.4,59.2,65.9,61.8,57.5,99,83,62,29.96,29.87,9,3,0,0.00
2013-1-15,78.4,66.5,54.1,64.1,59.8,53.8,99,81,59,29.93,29.80,8,2,0,0.00
2013-1-16,81.0,69.4,61.7,66.5,63.4,60.2,99,83,57,29.83,29.72,8,3,0,0.17
2013-1-17,65.5,52.9,39.4,65.2,50.3,34.4,99,91,76,30.02,29.63,11,4,0,0.21
2013-1-18,58.3,44.3,32.2,42.0,32.9,25.3,99,69,30,30.31,30.02,9,2,0,0.00
2013-1-19,65.7,46.9,33.3,45.0,34.3,26.2,91,63,43,30.31,30.06,5,2,0,0.00
2013-1-20,70.2,50.7,37.0,45.4,36.5,27.9,99,66,22,30.09,29.91,4,1,0,0.00
2013-1-21,68.9,49.5,32.5,42.5,36.9,30.3,99,66,36,29.99,29.86,6,1,0,0.00
2013-1-22,57.2,42.4,29.8,29.4,24.1,19.9,78,51,26,30.18,29.96,6,1,0,0.00
2013-1-23,59.7,43.2,25.9,41.0,30.5,22.5,92,65,31,30.27,30.04,6,1,0,0.00
2013-1-24,71.1,55.7,41.5,50.3,41.6,19.6,86,61,40,30.15,29.99,6,2,0,0.00
2013-1-25,54.1,44.9,37.0,40.8,31.9,20.4,89,61,41,30.24,29.95,6,2,0,0.00
2013-1-26,69.3,51.6,38.8,52.0,39.7,29.1,99,69,26,30.08,29.94,3,0,0,0.00
2013-1-27,62.1,48.0,33.8,42.7,36.9,30.5,92,68,41,30.28,30.08,8,2,0,0.00
2013-1-28,68.7,55.0,45.7,57.9,48.0,37.9,99,78,66,30.24,30.07,5,2,0,0.00
2013-1-29,80.2,63.9,49.5,65.6,57.9,49.2,99,83,55,30.07,29.84,7,2,0,0.00
2013-1-30,75.4,65.8,50.7,66.8,61.3,48.3,97,86,74,29.83,29.37,18,6,0,1.32
2013-1-31,58.5,45.2,32.0,47.4,29.9,24.1,87,58,29,30.03,29.63,7,2,0,0.00
2013-2-1,58.5,42.2,28.4,34.3,23.4,14.3,88,53,18,30.21,30.02,9,2,0,0.00
2013-2-2,61.0,40.3,18.9,33.6,20.7,13.8,94,51,18,30.22,29.93,6,1,0,0.00
2013-2-3,66.0,49.0,31.6,39.3,33.3,28.9,98,59,30,30.01,29.81,11,2,0,0.00
2013-2-4,58.1,42.9,29.8,37.0,30.1,26.0,94,64,29,29.99,29.84,4,1,0,0.00
2013-2-5,73.2,54.1,37.8,54.1,45.5,32.5,99,75,44,29.88,29.78,8,2,0,0.00
2013-2-6,75.4,58.6,45.5,56.4,48.0,44.6,99,73,38,29.97,29.84,4,1,0,0.00
2013-2-7,55.4,52.0,48.2,55.1,51.3,46.8,99,98,91,29.91,29.62,8,2,0,3.46
2013-2-8,65.1,53.1,45.0,53.8,49.0,43.9,99,87,65,29.92,29.72,9,1,0,0.00
2013-2-9,66.0,48.2,30.7,43.1,35.9,30.5,99,68,34,30.10,29.92,6,1,0,0.00
2013-2-10,71.2,56.4,38.7,57.5,46.3,32.5,98,70,53,30.13,29.87,11,3,0,0.41
2013-2-11,66.4,60.1,55.6,65.6,59.5,55.3,99,98,92,29.95,29.87,7,2,0,1.91
2013-2-12,63.7,54.4,47.5,55.3,52.6,47.0,99,94,67,29.93,29.61,6,2,0,2.26
2013-2-13,65.1,54.3,44.8,58.8,51.5,44.5,99,91,55,29.75,29.54,9,2,0,0.06
2013-2-14,53.8,43.1,34.7,44.7,39.7,34.4,99,89,64,29.94,29.73,4,0,0,0.00
2013-2-15,68.9,46.8,29.1,46.8,36.9,28.9,99,74,31,29.95,29.79,4,1,0,0.00
2013-2-16,53.6,42.1,28.2,41.2,29.8,14.6,99,67,28,29.99,29.74,7,2,0,0.02
2013-2-17,53.2,36.0,20.7,24.7,16.5,10.0,94,53,18,30.16,29.98,5,1,0,0.00
2013-2-18,61.0,41.7,24.4,34.7,25.6,20.3,88,58,25,30.24,30.01,7,2,0,0.00
2013-2-19,64.0,48.5,38.7,55.4,43.6,30.6,96,84,62,30.01,29.82,5,1,0,0.08
2013-2-20,64.8,46.7,27.3,30.3,23.9,17.6,84,46,17,30.04,29.89,5,1,0,0.00
2013-2-21,70.7,50.2,28.9,38.3,28.7,21.5,86,48,20,30.02,29.81,6,1,0,0.00
2013-2-22,55.6,50.1,45.0,51.3,47.6,39.4,99,92,60,29.93,29.81,7,3,0,2.56
2013-2-23,51.1,46.6,43.2,50.8,46.3,42.9,99,99,99,29.80,29.63,5,1,0,2.13
2013-2-24,74.1,56.6,46.8,52.6,44.3,31.7,99,70,24,29.85,29.72,4,1,0,0.00
2013-2-25,53.8,50.0,45.0,53.2,47.3,39.0,99,92,61,29.82,29.64,11,3,0,1.31
2013-2-26,73.2,58.9,43.3,64.9,48.7,39.0,99,73,38,29.64,29.36,16,4,0,0.89
2013-2-27,63.7,50.3,38.3,42.8,39.1,35.8,92,67,42,29.76,29.62,10,3,0,0.00
2013-2-28,63.1,49.0,34.5,41.2,35.4,29.3,99,64,34,29.78,29.67,7,2,0,0.00
2013-3-1,56.3,43.6,28.0,34.1,31.0,26.2,98,63,41,29.87,29.75,9,2,0,0.00
2013-3-2,47.7,37.8,25.7,34.8,29.0,25.5,99,72,51,29.84,29.78,9,2,0,0.00
2013-3-3,45.9,35.4,26.6,31.0,25.5,22.1,98,69,41,29.95,29.81,9,2,0,0.00
2013-3-4,64.9,44.3,24.4,38.2,27.0,21.4,94,57,21,30.06,29.87,6,1,0,0.00
2013-3-5,70.5,55.4,44.6,60.1,47.5,36.4,94,75,64,29.93,29.57,10,3,0,0.22
2013-3-6,54.0,42.6,33.1,34.5,29.1,21.7,86,61,39,30.00,29.75,8,3,0,0.00
2013-3-7,63.9,43.6,25.7,36.1,31.9,25.2,99,68,34,30.11,29.96,5,1,0,0.00
2013-3-8,66.7,48.1,32.0,37.2,33.7,31.0,97,63,30,30.11,30.00,7,1,0,0.00
2013-3-9,68.9,52.6,35.8,40.4,33.8,30.4,92,53,26,30.16,30.00,6,1,0,0.00
2013-3-10,75.7,59.4,43.7,52.8,46.5,37.6,92,65,36,30.07,29.88,7,2,0,0.00
2013-3-11,71.8,59.9,49.5,59.2,54.8,49.2,99,85,62,29.92,29.60,10,3,0,0.30
2013-3-12,70.9,57.5,43.3,59.8,45.8,35.6,99,70,31,29.87,29.59,7,2,0,0.85
2013-3-13,68.0,51.8,35.1,39.6,31.4,23.0,95,52,20,30.02,29.87,8,2,0,0.00
2013-3-14,62.4,46.0,28.4,27.1,24.1,21.2,76,45,24,30.19,30.01,5,1,0,0.00
2013-3-15,75.0,54.8,31.8,42.4,34.7,23.9,90,51,26,30.10,29.84,11,2,0,0.00
2013-3-16,80.2,63.7,44.1,50.2,45.9,42.5,96,57,29,29.91,29.72,9,3,0,0.00
2013-3-17,76.5,62.7,50.7,60.4,55.4,49.8,99,79,55,29.86,29.74,7,2,0,0.00
2013-3-18,77.2,62.5,52.5,66.2,59.2,51.7,99,90,69,29.82,29.56,8,2,0,0.85
2013-3-19,79.5,61.9,50.0,55.3,44.7,28.8,99,63,18,29.84,29.65,6,1,0,0.03
2013-3-20,68.9,53.2,39.7,35.5,29.6,19.8,73,45,16,29.92,29.70,6,1,0,0.00
2013-3-21,61.3,46.7,31.5,32.5,25.7,19.0,88,49,20,29.79,29.69,7,1,0,0.00
2013-3-22,58.1,47.0,37.6,45.5,35.0,21.1,94,65,42,29.88,29.75,6,1,0,0.03
2013-3-23,63.7,53.0,44.8,53.8,47.6,41.9,99,82,67,29.87,29.58,8,2,0,0.21
2013-3-24,68.9,57.8,51.1,60.3,54.7,41.7,99,90,59,29.59,29.33,10,2,0,2.27
2013-3-25,60.3,48.7,38.7,43.3,28.9,22.1,75,49,24,29.89,29.48,9,4,0,0.00
2013-3-26,54.0,40.2,27.5,29.0,25.9,22.1,90,58,38,30.11,29.88,10,2,0,0.00
2013-3-27,63.0,43.1,25.3,30.9,26.4,23.5,94,58,23,30.19,30.05,6,1,0,0.00
2013-3-28,69.6,50.9,31.3,33.3,29.3,25.9,93,50,21,30.16,30.03,6,1,0,0.00
2013-3-29,74.1,53.7,33.1,43.4,35.5,29.4,99,57,25,30.17,29.99,8,1,0,0.00
2013-3-30,79.2,63.5,47.7,54.3,47.9,40.0,83,59,39,30.02,29.84,6,2,0,0.00
2013-3-31,83.1,68.1,58.5,62.7,56.5,47.2,98,69,44,29.85,29.67,7,3,0,0.27
2013-4-1,81.5,67.0,53.8,64.9,57.3,44.1,99,75,39,29.79,29.67,5,1,0,0.16
2013-4-2,82.6,61.8,45.9,49.7,45.1,41.7,94,59,27,29.95,29.79,4,1,0,0.00
2013-4-3,66.7,55.6,46.2,55.0,45.5,36.7,96,71,44,29.94,29.85,5,1,0,0.15
2013-4-4,52.2,48.1,44.1,50.8,47.7,43.8,99,99,95,29.92,29.73,6,3,0,0.72
2013-4-5,62.2,48.9,42.3,50.0,45.2,42.0,99,88,63,29.87,29.72,4,1,0,0.15
2013-4-6,76.3,57.0,38.3,53.2,44.1,38.0,99,69,31,30.00,29.86,7,1,0,0.00
2013-4-7,83.3,62.4,44.4,60.4,51.2,43.9,99,71,37,30.01,29.87,5,1,0,0.00
2013-4-8,84.9,68.1,51.6,62.2,56.5,51.3,99,71,39,29.96,29.85,6,2,0,0.00
2013-4-9,90.7,70.8,54.3,65.8,59.3,54.0,99,72,36,29.97,29.88,9,1,0,0.00
2013-4-10,87.6,70.7,55.9,64.7,59.6,55.6,99,73,37,29.94,29.74,6,1,0,0.00
2013-4-11,84.6,71.5,59.2,73.3,66.5,58.9,99,85,64,29.75,29.53,8,2,0,0.03
2013-4-12,83.3,70.3,52.9,70.4,60.8,45.6,99,76,30,29.72,29.50,7,2,0,0.23
2013-4-13,85.3,65.8,44.1,49.8,44.9,40.9,97,53,24,29.82,29.70,5,1,0,0.00
2013-4-14,63.1,58.3,52.9,61.6,55.8,46.2,99,92,74,29.86,29.51,16,1,0,0.95
2013-4-15,83.7,67.7,54.9,66.3,61.0,54.6,99,82,52,29.93,29.70,3,1,0,0.00
2013-4-16,88.5,71.3,58.6,69.3,63.2,58.3,99,79,45,30.02,29.92,5,1,0,0.00
2013-4-17,87.8,71.9,59.0,67.6,62.6,58.7,99,76,42,30.00,29.88,7,1,0,0.00
2013-4-18,88.2,72.6,57.4,69.7,63.3,57.1,99,76,42,29.90,29.76,6,2,0,0.00
2013-4-19,82.2,65.9,51.6,72.0,62.9,51.3,99,91,69,29.83,29.66,8,2,0,1.46
2013-4-20,72.5,55.2,39.6,51.1,42.8,36.8,99,69,30,30.01,29.83,6,1,0,0.00
2013-4-21,75.4,58.9,41.7,49.3,43.1,39.5,99,62,30,30.09,29.99,7,2,0,0.00
2013-4-22,77.2,61.9,52.7,51.8,47.7,40.8,90,62,38,30.05,29.91,6,2,0,0.00
2013-4-23,83.5,63.2,47.1,56.9,47.6,39.7,86,59,35,30.01,29.87,6,1,0,0.00
2013-4-24,83.5,67.0,49.3,64.5,57.6,48.8,99,75,45,29.96,29.85,5,1,0,0.00
2013-4-25,85.5,69.4,52.3,65.1,55.9,38.5,98,67,28,30.09,29.87,5,1,0,0.00
2013-4-26,86.4,63.3,38.3,58.3,47.1,35.4,95,59,32,30.12,30.03,6,1,0,0.00
2013-4-27,83.7,68.4,53.6,60.2,53.8,50.0,94,64,35,30.09,29.92,6,2,0,0.00
2013-4-28,82.8,67.8,59.0,70.5,62.8,56.3,99,85,57,29.93,29.76,7,1,0,1.02
2013-4-29,80.4,67.2,61.9,68.4,64.7,61.2,99,92,63,29.82,29.73,4,0,0,0.16
2013-4-30,86.7,70.5,58.1,68.2,61.5,57.0,99,77,39,29.90,29.73,4,1,0,0.00
2013-5-1,75.2,66.6,60.6,64.3,61.2,57.6,99,84,66,29.98,29.81,7,2,0,0.00
2013-5-2,74.7,66.0,60.8,66.6,62.4,58.5,97,89,76,29.91,29.82,7,3,0,0.11
2013-5-3,71.8,65.4,61.3,63.1,60.8,58.7,95,85,71,29.82,29.71,8,4,0,0.02
2013-5-4,63.0,59.5,54.7,62.1,58.2,53.8,99,95,87,29.71,29.57,7,2,0,1.78
2013-5-5,77.5,63.8,52.9,59.8,54.9,50.5,99,77,42,29.66,29.53,6,2,0,0.33
2013-5-6,69.6,56.6,42.3,54.4,49.4,42.0,99,79,51,29.75,29.65,6,1,0,0.00
2013-5-7,73.2,61.2,50.0,57.6,52.8,48.0,99,77,47,29.80,29.67,4,1,0,0.02
2013-5-8,84.9,65.4,46.8,60.4,53.8,46.5,99,71,37,29.88,29.77,8,1,0,0.00
2013-5-9,89.2,71.4,53.6,64.4,58.5,52.8,98,68,37,29.94,29.82,5,1,0,0.00
2013-5-10,87.6,71.2,57.0,67.0,60.9,56.2,99,73,41,29.91,29.79,5,1,0,0.00
2013-5-11,82.2,69.7,58.8,68.8,63.7,57.0,97,83,62,29.84,29.73,6,1,0,0.00
2013-5-12,84.0,69.9,55.9,64.3,55.8,43.7,99,66,34,29.90,29.70,4,1,0,0.00
2013-5-13,78.8,61.4,43.2,45.0,40.5,33.5,89,52,20,30.00,29.85,5,1,0,0.00
2013-5-14,86.0,64.4,43.2,56.6,46.0,38.5,96,58,25,30.07,29.94,4,1,0,0.00
2013-5-15,92.5,72.0,51.6,61.9,56.8,49.9,95,64,33,30.00,29.84,6,1,0,0.00
2013-5-16,90.1,72.7,59.2,63.0,58.6,54.7,87,65,33,29.89,29.81,6,1,0,0.00
2013-5-17,91.9,73.8,59.0,69.0,63.2,57.7,98,72,41,29.91,29.81,4,0,0,0.00
2013-5-18,81.9,71.7,64.0,69.9,66.1,61.2,93,83,64,29.95,29.84,6,1,0,0.00
2013-5-19,87.3,71.8,63.0,72.5,67.1,62.4,99,87,56,29.93,29.81,4,1,0,0.12
2013-5-20,89.6,74.1,65.8,75.3,69.7,65.5,99,88,62,29.89,29.79,4,0,0,0.00
2013-5-21,94.8,78.3,65.3,74.4,68.6,64.7,99,76,41,29.86,29.74,6,1,0,0.00
2013-5-22,91.4,76.2,63.5,72.5,67.8,62.9,99,78,47,29.82,29.70,6,1,0,0.00
2013-5-23,93.0,76.5,64.2,74.3,66.5,62.5,99,75,39,29.82,29.73,4,1,0,0.86
2013-5-24,87.6,72.8,58.5,63.4,57.3,49.5,94,63,30,30.01,29.74,4,1,0,0.00
2013-5-25,86.7,67.3,50.2,60.6,51.1,45.2,94,61,29,30.10,29.96,5,1,0,0.00
2013-5-26,91.8,71.7,53.1,64.8,57.3,51.8,98,66,30,30.07,29.94,5,1,0,0.00
2013-5-27,91.6,74.8,57.4,70.4,61.3,55.7,94,67,37,30.03,29.94,5,1,0,0.00
2013-5-28,91.4,75.4,60.8,67.2,62.5,58.5,97,68,39,30.02,29.92,11,2,0,0.00
2013-5-29,92.1,76.1,61.5,70.5,64.6,59.8,98,71,39,30.01,29.91,5,2,0,0.00
2013-5-30,91.6,78.7,68.5,73.3,67.4,62.6,94,71,42,30.04,29.91,6,2,0,0.00
2013-5-31,93.6,78.7,66.0,71.3,67.0,64.1,98,71,41,30.01,29.89,9,2,0,0.00
2013-6-1,93.2,79.1,67.5,71.9,68.2,64.9,96,72,44,29.95,29.77,7,2,0,0.00
2013-6-2,91.0,77.1,67.6,74.6,69.9,66.0,97,80,54,29.86,29.66,7,2,0,0.13
2013-6-3,92.1,76.7,68.0,76.1,71.3,67.4,99,85,53,29.77,29.63,3,1,0,0.37
2013-6-4,95.4,80.8,70.3,77.0,72.7,69.1,97,78,53,29.82,29.69,4,1,0,0.00
2013-6-5,91.2,78.7,69.4,75.4,71.6,68.5,97,81,54,29.81,29.68,4,1,0,0.00
2013-6-6,79.0,72.1,69.4,73.4,70.0,67.7,98,93,81,29.71,29.46,3,1,0,1.26
2013-6-7,91.2,75.1,67.8,76.4,71.0,67.2,99,88,60,29.67,29.42,8,1,0,0.86
2013-6-8,90.9,76.5,66.4,74.4,69.8,66.1,99,82,52,29.91,29.65,4,1,0,0.00
2013-6-9,90.5,76.8,69.4,77.8,71.8,68.5,97,85,61,29.95,29.83,5,1,0,0.02
2013-6-10,88.2,76.2,71.1,77.7,72.9,69.2,99,90,68,29.89,29.80,6,1,0,0.20
2013-6-11,95.0,79.5,67.3,76.9,72.5,67.0,99,82,51,29.89,29.80,5,1,0,0.00
2013-6-12,99.0,83.8,69.8,80.1,74.1,68.8,97,75,47,29.88,29.78,6,1,0,0.00
2013-6-13,98.8,84.7,69.4,78.0,72.8,66.7,97,71,42,29.80,29.55,8,1,0,0.13
2013-6-14,94.6,79.0,66.6,74.6,67.9,62.6,97,72,41,29.81,29.60,5,1,0,0.01
2013-6-15,94.3,77.6,62.8,69.8,63.9,60.3,96,66,36,29.94,29.77,6,1,0,0.00
2013-6-16,96.3,78.9,65.7,71.8,67.4,64.5,96,71,40,29.98,29.85,6,1,0,0.00
2013-6-17,95.0,81.3,70.5,77.4,71.5,67.4,92,74,51,29.90,29.72,7,1,0,0.04
2013-6-18,87.8,76.3,69.6,78.3,73.2,69.0,99,91,71,29.80,29.69,5,1,0,0.43
2013-6-19,90.1,77.5,69.8,76.9,72.2,69.2,98,85,61,29.85,29.70,4,1,0,0.01
2013-6-20,88.2,76.8,69.6,74.2,70.3,66.9,97,82,57,29.95,29.81,5,1,0,0.00
2013-6-21,91.9,77.7,68.0,70.4,65.4,59.1,97,70,38,30.00,29.90,6,1,0,0.02
2013-6-22,92.3,75.6,63.1,72.2,66.9,61.6,97,77,49,30.00,29.89,8,1,0,0.44
2013-6-23,91.9,76.4,67.8,77.4,72.0,66.9,99,88,57,30.00,29.89,3,0,0,0.62
2013-6-24,93.4,76.0,69.3,78.9,72.5,68.7,99,90,59,30.02,29.93,3,1,0,0.23
2013-6-25,93.0,77.7,66.9,77.6,71.9,66.5,99,84,55,29.98,29.85,8,1,0,0.01
2013-6-26,93.9,80.6,68.7,79.1,73.7,68.4,99,82,56,29.90,29.76,4,1,0,0.02
2013-6-27,95.2,81.8,72.3,80.0,74.1,68.2,99,80,54,29.82,29.65,6,1,0,0.00
2013-6-28,98.4,79.8,70.5,80.9,73.7,68.7,98,84,51,29.67,29.51,7,1,0,0.70
2013-6-29,86.2,76.8,68.4,77.3,72.9,67.8,99,88,72,29.57,29.49,4,1,0,0.00
2013-6-30,91.0,75.9,71.2,77.8,73.1,70.3,98,92,63,29.61,29.49,4,1,0,0.90
2013-7-1,85.3,75.8,69.1,79.2,73.0,68.8,99,91,80,29.79,29.57,5,1,0,0.12
2013-7-2,91.2,75.8,70.5,76.1,72.4,69.9,99,91,58,29.92,29.72,7,2,0,1.35
2013-7-3,87.6,76.7,71.4,79.2,73.7,70.8,99,91,72,29.97,29.84,6,1,0,0.64
2013-7-4,87.8,74.9,70.5,78.3,73.3,70.2,99,95,73,30.01,29.88,7,2,0,0.61
2013-7-5,91.8,76.5,70.2,78.6,72.8,69.8,99,90,59,30.00,29.90,10,1,0,1.34
2013-7-6,92.1,77.3,70.3,78.0,73.3,70.0,99,89,57,29.98,29.85,6,2,0,0.00
2013-7-7,94.1,79.9,71.6,77.9,74.0,71.3,99,84,52,30.00,29.88,4,1,0,0.00
2013-7-8,96.3,80.0,71.1,77.6,73.3,70.8,99,82,46,30.01,29.92,4,1,0,0.00
2013-7-9,96.6,81.3,71.1,77.6,74.0,70.5,99,81,51,30.00,29.89,5,1,0,0.00
2013-7-10,86.2,76.2,71.1,79.3,74.0,70.8,99,93,79,29.92,29.78,5,1,0,0.58
2013-7-11,91.4,76.8,70.3,78.4,73.6,70.0,99,91,63,29.81,29.68,3,1,0,0.92
2013-7-12,89.4,78.1,72.3,78.4,74.4,72.0,99,90,66,29.72,29.64,5,1,0,0.46
2013-7-13,83.7,75.9,71.1,76.8,73.8,70.5,98,94,78,29.85,29.69,5,1,0,0.73
2013-7-14,86.5,77.6,71.1,79.9,74.4,70.8,99,90,72,29.99,29.79,7,2,0,0.09
2013-7-15,91.8,76.9,72.1,78.6,74.1,71.5,99,92,61,30.07,29.95,6,2,0,0.06
2013-7-16,93.0,80.8,71.6,77.8,74.3,71.3,99,83,57,30.09,30.00,5,1,0,0.00
2013-7-17,95.0,83.2,70.2,81.5,75.4,69.9,99,80,51,30.04,29.93,4,1,0,1.92
2013-7-18,94.6,78.1,67.1,78.6,72.9,66.8,99,86,57,29.99,29.83,3,0,0,0.00
2013-7-19,94.1,80.3,70.0,78.4,73.5,69.7,99,82,53,29.92,29.79,4,1,0,0.00
2013-7-20,87.3,76.3,72.3,79.1,74.2,71.7,99,94,70,29.87,29.75,4,1,0,0.66
2013-7-21,89.1,75.6,70.7,81.9,74.3,70.4,99,96,74,29.90,29.78,4,0,0,0.94
2013-7-22,92.1,77.4,70.9,80.7,74.6,70.6,99,92,62,29.85,29.76,5,1,0,0.37
2013-7-23,91.8,77.9,71.1,80.1,74.6,70.8,99,90,66,29.82,29.66,8,1,0,0.07
2013-7-24,92.8,77.7,69.3,79.4,73.9,69.0,99,89,63,29.72,29.61,4,1,0,0.00
2013-7-25,95.5,80.8,68.9,79.0,73.9,68.6,99,82,51,29.81,29.60,4,1,0,0.00
2013-7-26,94.1,79.9,70.9,78.5,73.4,70.0,99,83,51,29.85,29.75,4,1,0,0.00
2013-7-27,92.3,79.8,71.2,78.5,74.3,70.8,99,85,53,29.83,29.71,4,0,0,0.00
2013-7-28,94.5,80.3,69.4,77.4,72.5,69.1,99,80,48,29.84,29.71,3,0,0,0.00
2013-7-29,95.5,81.2,70.5,79.6,75.6,70.2,99,85,56,29.96,29.80,3,0,0,0.00
2013-7-30,96.4,81.3,70.2,76.5,72.0,68.4,99,77,45,30.00,29.90,6,0,0,0.00
2013-7-31,79.0,74.1,71.4,78.0,73.7,71.1,99,99,94,29.93,29.82,4,0,0,1.06
2013-8-1,91.0,77.1,71.8,81.6,75.3,71.5,99,95,69,29.82,29.72,4,0,0,0.68
2013-8-2,95.4,80.7,71.1,80.8,75.9,70.8,99,87,58,29.84,29.71,4,0,0,0.00
2013-8-3,94.6,81.5,71.6,82.2,76.2,71.3,99,85,58,29.87,29.78,3,0,0,0.00
2013-8-4,94.1,80.3,71.4,82.1,76.0,71.1,99,88,60,29.86,29.75,5,0,0,0.00
2013-8-5,95.5,81.3,70.3,80.0,74.3,70.0,99,82,48,29.83,29.74,3,0,0,0.00
2013-8-6,95.9,81.0,73.4,81.3,76.5,73.1,99,88,58,29.85,29.73,5,0,0,0.00
2013-8-7,93.0,81.2,73.9,79.4,75.9,73.6,99,86,57,29.86,29.76,6,1,0,0.00
2013-8-8,96.8,80.6,69.6,79.2,74.1,69.3,99,83,52,29.86,29.77,6,1,0,0.00
2013-8-9,97.7,81.8,70.5,80.6,74.9,70.2,99,82,48,29.92,29.79,5,1,0,0.00
2013-8-10,98.1,82.5,71.1,80.0,74.1,70.8,99,79,45,29.96,29.87,6,1,0,0.00
2013-8-11,99.5,83.4,70.7,79.4,74.2,70.4,99,77,47,30.01,29.88,5,1,0,0.00
2013-8-12,99.5,84.1,72.5,80.7,75.6,72.2,99,79,46,29.94,29.79,4,0,0,0.00
2013-8-13,95.9,80.1,71.8,82.1,76.4,71.5,99,90,54,29.83,29.70,5,1,0,0.09
2013-8-14,88.7,77.8,70.9,79.7,75.2,70.6,99,92,74,29.81,29.69,4,1,0,2.11
2013-8-15,73.6,70.1,66.6,73.3,69.8,66.3,99,99,99,29.89,29.74,5,1,0,1.65
2013-8-16,75.0,69.2,66.4,73.2,68.7,66.1,99,98,92,29.89,29.76,4,1,0,0.34
2013-8-17,75.4,69.5,66.2,75.1,69.2,65.9,99,99,99,29.94,29.82,3,0,0,1.30
2013-8-18,90.3,75.6,67.8,83.2,74.0,67.5,99,95,71,29.99,29.86,5,1,0,0.86
2013-8-19,90.5,76.7,70.3,82.5,75.0,70.0,99,95,64,29.91,29.82,4,0,0,1.44
2013-8-20,90.0,77.7,72.0,81.8,76.2,71.7,99,95,77,30.00,29.83,4,0,0,0.01
2013-8-21,94.1,78.3,68.9,81.0,73.2,68.6,99,87,52,30.01,29.89,5,1,0,0.04
2013-8-22,95.2,78.8,70.3,80.7,73.8,70.0,99,87,54,29.98,29.86,8,1,0,1.13
2013-8-23,93.0,78.8,67.8,79.5,72.5,67.5,99,84,52,29.89,29.78,5,1,0,0.12
2013-8-24,87.3,76.1,68.7,78.4,73.4,68.4,99,92,72,30.01,29.80,5,1,0,0.02
2013-8-25,87.4,75.9,64.0,72.8,66.1,59.8,99,76,44,30.12,30.00,5,1,0,0.00
2013-8-26,88.0,72.4,58.8,68.4,63.2,58.5,99,76,43,30.07,29.95,4,1,0,0.00
2013-8-27,92.3,75.5,63.5,71.0,65.2,61.1,99,74,37,29.95,29.84,4,0,0,0.00
2013-8-28,94.5,77.2,63.9,74.7,69.3,63.6,99,80,46,29.87,29.79,4,1,0,0.00
2013-8-29,95.9,81.2,67.5,79.5,73.8,67.2,99,81,51,29.82,29.72,4,0,0,0.00
2013-8-30,95.0,80.4,72.0,83.5,76.0,71.7,99,88,60,29.80,29.70,4,1,0,0.22
2013-8-31,91.4,79.0,71.1,80.1,75.0,70.8,99,89,58,29.82,29.69,4,0,0,0.00
2013-9-1,93.7,80.8,71.1,81.1,74.9,70.8,99,84,55,29.78,29.67,6,1,0,0.00
2013-9-2,92.5,80.2,71.6,80.7,75.3,71.3,99,86,63,29.79,29.66,5,1,0,0.00
2013-9-3,94.3,80.1,71.4,80.6,74.3,70.6,99,85,55,29.81,29.68,4,1,0,0.00
2013-9-4,94.8,79.4,69.1,79.8,74.6,68.8,99,87,55,29.90,29.75,3,0,0,0.00
2013-9-5,95.7,81.1,70.0,81.3,74.6,69.7,99,83,52,29.93,29.82,4,0,0,0.00
2013-9-6,93.6,79.2,68.5,78.5,72.1,68.2,99,81,49,29.92,29.83,4,0,0,0.00
2013-9-7,92.5,77.1,65.7,75.6,69.0,65.4,99,79,44,29.93,29.80,3,0,0,0.00
2013-9-8,94.5,77.7,64.0,75.6,69.4,63.7,99,79,46,29.84,29.74,3,0,0,0.00
2013-9-9,97.5,80.2,69.3,78.1,72.7,69.0,99,81,42,29.92,29.75,4,1,0,0.00
2013-9-10,93.0,79.0,67.8,77.2,70.7,67.5,99,79,47,30.02,29.89,6,1,0,0.00
2013-9-11,94.1,77.9,67.1,77.3,70.3,66.8,99,80,47,30.02,29.89,6,1,0,0.00
2013-9-12,94.5,77.8,64.9,77.1,69.1,64.1,99,79,39,29.90,29.72,3,0,0,0.00
2013-9-13,93.9,76.8,66.9,80.5,72.3,66.6,99,88,49,29.71,29.60,3,0,0,0.32
2013-9-14,88.9,73.1,59.7,70.8,63.9,59.4,99,77,41,29.86,29.64,5,0,0,0.00
2013-9-15,91.9,77.7,66.0,78.5,72.0,65.1,99,85,54,29.95,29.82,4,1,0,0.16
2013-9-16,93.6,79.9,69.6,81.1,74.5,69.3,99,86,52,29.92,29.82,4,0,0,0.00
2013-9-17,82.4,74.6,68.9,77.7,72.3,68.6,99,93,78,29.99,29.85,7,1,0,0.00
2013-9-18,84.4,72.0,63.3,71.1,65.8,63.0,99,83,53,29.99,29.91,6,1,0,0.00
2013-9-19,90.0,72.5,58.8,65.7,61.7,58.5,99,73,37,29.96,29.87,4,1,0,0.00
2013-9-20,91.4,74.7,62.2,74.0,66.5,61.9,99,79,47,29.88,29.74,4,1,0,0.00
2013-9-21,84.7,73.4,65.5,77.3,71.2,65.2,99,93,74,29.74,29.55,6,1,0,0.70
2013-9-22,82.9,71.9,64.9,71.3,67.8,63.4,99,88,56,29.68,29.52,5,1,0,0.36
2013-9-23,77.4,68.8,60.4,70.7,66.5,60.1,99,93,78,29.84,29.64,5,1,0,0.00
2013-9-24,80.8,71.6,66.9,71.6,68.9,66.6,99,92,71,29.79,29.67,5,1,0,0.02
2013-9-25,81.5,72.2,66.7,76.9,71.4,66.4,99,97,86,29.66,29.56,4,1,0,0.00
2013-9-26,77.7,68.4,61.9,71.1,66.4,61.6,99,94,76,29.79,29.62,3,0,0,0.00
2013-9-27,82.6,67.8,56.7,67.3,59.2,54.8,99,78,42,29.90,29.77,6,1,0,0.00
2013-9-28,80.4,66.0,55.6,60.7,56.6,52.1,99,76,40,29.98,29.88,5,1,0,0.00
2013-9-29,82.6,66.9,54.9,63.8,58.8,54.6,99,79,44,29.91,29.79,6,0,0,0.00
2013-9-30,77.7,65.5,57.6,66.2,61.6,57.3,99,88,58,29.87,29.79,3,0,0,0.00
2013-10-1,85.8,67.7,54.7,66.7,58.3,54.4,99,76,39,29.95,29.83,3,0,0,0.00
2013-10-2,86.9,70.1,57.0,70.2,61.6,56.7,99,78,40,29.95,29.85,4,0,0,0.00
2013-10-3,87.3,71.5,58.5,69.1,61.8,58.2,99,76,40,29.96,29.86,5,0,0,0.00
2013-10-4,90.1,73.7,60.6,74.5,65.3,60.3,99,78,44,29.95,29.86,4,0,0,0.00
2013-10-5,89.2,73.8,62.2,75.3,66.4,61.9,99,81,45,29.95,29.81,4,0,0,0.00
2013-10-6,87.3,73.3,61.9,75.9,69.1,61.6,99,88,57,29.83,29.67,6,1,0,0.19
2013-10-7,82.0,72.8,64.4,78.1,71.9,64.1,99,97,86,29.73,29.60,3,0,0,0.14
2013-10-8,79.9,68.0,59.5,69.6,63.7,59.2,99,87,68,29.92,29.67,4,1,0,0.00
2013-10-9,80.1,65.5,55.6,63.6,58.8,55.3,99,82,49,29.95,29.86,4,1,0,0.00
2013-10-10,84.0,66.1,50.5,64.6,57.2,50.2,99,77,39,29.92,29.79,4,0,0,0.00
2013-10-11,87.8,67.9,54.0,67.5,58.2,53.7,99,76,38,29.85,29.73,5,1,0,0.00
2013-10-12,86.4,67.7,52.9,66.2,58.6,52.6,99,77,39,29.88,29.77,4,0,0,0.00
2013-10-13,87.8,70.2,55.8,69.7,61.8,55.5,99,78,44,29.96,29.85,4,0,0,0.00
2013-10-14,74.8,67.2,59.7,68.9,65.1,59.4,99,93,80,29.96,29.88,5,0,0,0.00
2013-10-15,75.9,67.3,59.4,67.8,64.6,59.1,99,92,75,29.91,29.80,4,1,0,0.00
2013-10-16,85.1,67.8,55.8,65.9,59.5,55.5,99,79,41,29.85,29.73,3,0,0,0.01
2013-10-17,87.8,71.7,57.9,70.1,63.7,57.6,99,79,45,29.79,29.67,5,1,0,0.00
2013-10-18,78.8,70.4,65.1,71.2,67.7,64.3,99,92,74,29.81,29.69,5,0,0,0.01
2013-10-19,77.7,67.6,61.3,66.8,62.2,57.0,99,85,52,29.79,29.69,3,0,0,0.00
2013-10-20,76.6,63.5,52.9,60.8,56.0,52.1,99,80,45,29.84,29.75,3,0,0,0.00
2013-10-21,74.8,63.4,55.0,66.8,60.7,54.7,99,92,72,29.90,29.79,3,0,0,0.00
2013-10-22,76.3,66.4,60.4,71.2,65.3,60.1,99,96,79,29.82,29.65,4,0,0,0.00
2013-10-23,75.9,60.6,46.6,64.6,47.4,32.8,99,69,24,29.87,29.64,6,1,0,0.01
2013-10-24,72.9,52.3,36.1,47.7,39.6,31.2,99,70,24,30.04,29.88,4,0,0,0.00
2013-10-25,67.1,50.3,38.8,47.4,38.6,28.0,99,71,27,30.15,29.98,3,0,0,0.00
2013-10-26,68.9,49.3,34.0,43.1,36.5,32.3,99,67,27,30.14,29.97,5,1,0,0.00
2013-10-27,76.3,55.7,37.6,55.4,45.9,37.3,99,75,38,29.99,29.90,3,0,0,0.00
2013-10-28,80.1,63.3,52.5,61.4,55.8,52.2,99,80,43,30.07,29.93,4,0,0,0.00
2013-10-29,81.7,64.0,51.1,63.6,55.7,50.8,99,78,41,30.13,30.02,4,0,0,0.00
2013-10-30,83.5,65.0,52.7,64.1,55.6,52.4,99,76,37,30.12,29.96,5,0,0,0.00
2013-10-31,81.3,66.0,52.2,70.5,60.3,51.9,99,84,57,29.99,29.74,10,1,0,0.00
2013-11-1,76.1,67.2,62.2,74.8,66.5,59.8,99,98,88,29.74,29.54,12,1,0,0.52
2013-11-2,77.7,60.8,48.0,62.5,52.8,43.7,99,79,33,29.82,29.59,4,0,0,0.00
2013-11-3,69.6,52.5,39.9,49.7,41.9,38.4,99,72,34,30.08,29.81,5,1,0,0.00
2013-11-4,70.0,53.8,41.4,45.7,41.0,35.2,99,65,38,30.20,30.08,9,2,0,0.00
2013-11-5,70.5,57.4,44.1,52.5,42.1,35.3,74,58,39,30.23,30.09,7,2,0,0.00
2013-11-6,79.5,64.0,57.0,61.8,57.3,52.0,99,80,54,30.09,29.91,5,1,0,0.00
2013-11-7,75.0,60.8,43.5,69.5,56.9,40.2,99,88,71,29.95,29.81,5,0,0,0.00
2013-11-8,66.6,52.0,40.5,40.0,34.7,30.6,92,57,26,30.11,29.96,6,1,0,0.00
2013-11-9,71.4,53.2,39.0,50.7,41.1,33.2,91,66,39,30.15,30.04,5,1,0,0.00
2013-11-10,74.3,57.5,47.3,53.8,46.0,34.4,99,72,24,30.11,29.99,3,0,0,0.00
2013-11-11,73.9,55.1,41.0,45.5,41.8,38.4,99,67,29,30.07,29.96,4,1,0,0.00
2013-11-12,77.2,54.3,38.5,52.5,39.7,23.8,99,64,27,30.15,29.88,6,1,0,0.00
2013-11-13,55.2,39.0,27.3,25.1,17.6,10.9,76,46,18,30.36,30.16,6,1,0,0.00
2013-11-14,65.5,44.5,23.9,39.4,26.5,16.3,86,54,19,30.32,30.09,4,1,0,0.00
2013-11-15,63.1,54.2,45.5,54.1,47.6,39.6,99,79,67,30.11,29.94,4,1,0,0.00
2013-11-16,71.6,62.0,53.6,65.1,60.3,53.3,99,95,79,30.03,29.90,4,1,0,0.00
2013-11-17,71.2,66.6,63.0,70.6,66.2,62.7,99,99,97,29.93,29.75,5,1,0,0.00
2013-11-18,86.9,72.2,55.0,75.6,58.7,32.5,99,68,38,29.80,29.67,5,1,0,0.03
2013-11-19,68.0,51.8,38.3,39.4,31.5,26.9,87,50,23,29.95,29.79,6,1,0,0.00
2013-11-20,56.5,51.3,43.7,41.8,34.6,27.9,64,53,46,30.10,29.94,6,2,0,0.00
2013-11-21,67.1,57.2,50.7,53.6,47.7,41.3,89,71,58,30.17,30.08,8,2,0,0.00
2013-11-22,75.2,61.3,54.3,68.1,59.0,51.7,99,93,78,30.14,29.95,3,0,0,0.00
2013-11-23,67.8,60.6,51.1,64.7,57.3,36.0,99,90,55,29.99,29.88,6,1,0,0.03
2013-11-24,55.9,43.4,33.3,35.6,24.0,15.0,72,49,23,30.25,29.99,7,2,0,0.00
2013-11-25,55.6,42.4,30.7,38.4,21.5,-99.9,66,45,31,30.29,29.97,6,-9,0,0.00
2013-11-26,67.1,54.9,46.6,66.8,52.1,38.2,99,91,66,29.96,29.41,12,3,0,0.69
2013-11-27,49.1,41.2,25.7,47.7,35.3,21.0,99,81,52,30.11,29.42,9,3,0,0.04
2013-11-28,51.8,34.1,21.0,30.5,24.4,20.3,99,73,34,30.28,30.08,6,1,0,0.00
2013-11-29,62.6,41.7,25.9,35.2,27.5,24.3,99,65,24,30.38,30.24,4,1,0,0.00
2013-11-30,55.2,46.0,37.2,34.6,31.4,27.6,71,57,45,30.36,30.11,8,2,0,0.00
2013-12-1,60.6,50.3,40.5,49.7,42.6,34.0,99,76,57,30.12,29.82,4,0,0,0.00
2013-12-2,68.4,53.4,45.5,56.7,47.4,44.2,99,83,42,29.82,29.62,4,0,0,0.00
2013-12-3,63.0,55.6,45.9,62.7,55.3,45.6,99,99,99,29.74,29.64,4,1,0,0.37
2013-12-4,75.2,64.6,56.8,71.7,63.9,56.5,99,98,86,29.88,29.71,5,0,0,0.02
2013-12-5,74.8,67.1,61.7,74.5,66.8,61.4,99,99,98,29.92,29.82,7,2,0,0.57
2013-12-6,81.7,69.0,58.3,73.4,66.1,58.0,99,91,72,29.92,29.82,9,2,0,0.00
2013-12-7,69.4,62.5,53.1,69.1,61.9,52.8,99,98,90,30.07,29.86,5,1,0,0.06
2013-12-8,54.1,50.9,48.9,53.8,50.6,48.6,99,99,99,30.09,29.97,6,2,0,0.02
2013-12-9,73.8,60.2,49.5,73.5,59.9,49.2,99,99,98,29.99,29.82,6,1,0,0.88
2013-12-10,67.6,56.5,34.3,67.3,52.7,31.9,99,88,51,30.12,29.76,10,2,0,0.06
2013-12-11,59.7,39.0,28.4,41.1,35.0,28.2,99,87,49,30.24,30.11,4,0,0,0.00
2013-12-12,60.1,42.2,30.7,37.5,27.7,16.4,99,65,19,30.29,30.12,8,1,0,0.00
2013-12-13,61.2,44.1,23.7,43.9,31.1,21.3,99,65,27,30.22,29.98,6,1,0,0.00
2013-12-14,67.6,57.7,47.3,66.1,56.0,43.7,99,94,83,29.97,29.61,9,2,0,0.52
2013-12-15,59.5,48.4,31.3,59.2,44.1,30.5,99,86,57,29.99,29.63,7,2,0,0.09
2013-12-16,64.0,41.9,25.5,39.8,31.3,25.3,99,73,30,30.10,29.98,4,1,0,0.00
2013-12-17,68.5,45.9,28.2,42.3,32.5,28.0,99,68,23,30.11,29.93,9,1,0,0.00
2013-12-18,62.4,45.4,32.2,36.0,26.7,19.2,87,55,20,30.16,29.98,6,1,0,0.00
2013-12-19,66.7,46.0,27.1,40.5,30.7,24.8,99,62,21,30.19,30.01,6,1,0,0.00
2013-12-20,73.4,55.3,41.2,60.8,51.0,40.5,99,87,58,30.08,29.93,5,0,0,0.00
2013-12-21,79.7,67.0,54.1,72.1,64.4,53.8,99,92,76,29.94,29.76,12,2,0,0.01
2013-12-22,77.9,71.3,64.6,74.7,70.3,64.3,99,97,89,29.88,29.78,13,4,0,0.00
2013-12-23,71.4,58.4,44.1,71.1,58.1,43.8,99,99,97,30.02,29.82,8,1,0,1.14
2013-12-24,56.8,41.1,28.9,43.0,29.8,22.1,99,70,28,30.17,30.01,6,2,0,0.00
2013-12-25,47.8,38.5,26.1,31.2,27.2,22.6,90,65,50,30.25,30.13,8,2,0,0.00
2013-12-26,57.4,45.6,37.2,43.2,35.6,29.6,99,69,57,30.20,30.08,4,1,0,0.00
2013-12-27,56.8,43.2,33.1,39.2,35.4,31.3,99,76,44,30.26,30.11,7,1,0,0.00
2013-12-28,50.5,44.2,38.3,45.0,36.1,30.9,99,75,49,30.19,29.80,6,2,0,0.28
2013-12-29,60.1,52.1,41.2,56.1,51.3,40.9,99,97,85,29.85,29.62,6,2,0,1.20
2013-12-30,61.2,47.9,36.3,53.2,45.7,36.0,99,93,69,30.02,29.84,2,0,0,0.00
2013-12-31,53.6,46.4,38.8,48.7,43.7,38.3,99,91,69,30.20,29.99,3,0,0,0.00
2014-1-1,57.7,47.1,37.8,52.2,44.9,37.5,99,92,78,30.17,29.92,4,0,0,0.00
2014-1-2,56.3,49.0,34.0,56.0,47.9,28.2,99,96,77,29.94,29.56,7,2,0,0.50